Morristown, NJ

9:13 AM EDT on April 28, 2017 (GMT -0400)
Morristown Municipal

Weather History for KMMU - March, 2012

Change the Weather History Date:

Thursday, March 8, 2012

  Actual Average Record
Temperature  
Mean Temperature 55 °F -  
Max Temperature 69 °F 46 °F 71 °F (1987)
Min Temperature 41 °F 25 °F 6 °F (1936)
Degree Days  
Heating Degree Days 10    
Growing Degree Days 5 (Base 50)    
Moisture  
Dew Point 45 °F    
Average Humidity 69    
Maximum Humidity 100    
Minimum Humidity 46    
Precipitation  
Precipitation 0.00 in - - ()
Sea Level Pressure  
Sea Level Pressure 30.11 in    
Wind  
Wind Speed 8 mph (SW)    
Max Wind Speed 25 mph    
Max Gust Speed 37 mph    
Visibility 10 miles    
Events      
Averages and records for this station are not official NWS values.
T = Trace of Precipitation, MM = Missing Value Source: NWS Daily Summary

Daily Weather History Graph

Daily Weather History Graph

Search for Another Location

Airport or City:

Trip Planner

Search our weather history database for the weather conditions in past years. The results will help you decide how hot, cold, wet, or windy it might be!

Date:

Astronomy

Mar. 08, 2012 Rise Set
Actual Time 6:19 AM EST 5:57 PM EST
Civil Twilight 5:52 AM EST 6:24 PM EST
Nautical Twilight 5:20 AM EST 6:56 PM EST
Astronomical Twilight 4:48 AM EST 7:28 PM EST
Moon 6:42 PM EST (3/8) 6:02 AM EST (3/8)
Length of Visible Light 12h 32m
Length of Day
11h 37m
Full, 100% of the Moon is Illuminated
Mar 8
Full
Mar 14
Last Quarter
Mar 22
New
Mar 30
First Quarter
Apr 6
Full

Hourly Weather History & Observations

Time (EST) Temp. Windchill Dew Point Humidity Pressure Visibility Wind Dir Wind Speed Gust Speed Precip Events Conditions
12:15 AM 50.0 °F - 42.8 °F 76% 30.31 in 10.0 mi SSW 4.6 mph - N/A   Clear
12:35 AM 50.0 °F - 42.8 °F 76% 30.31 in 10.0 mi SSW 5.8 mph - N/A   Clear
12:55 AM 48.2 °F - 42.8 °F 82% 30.30 in 10.0 mi SSW 5.8 mph - N/A   Clear
1:15 AM 48.2 °F - 42.8 °F 82% 30.30 in 10.0 mi SSW 5.8 mph - N/A   Clear
1:35 AM 48.2 °F - 42.8 °F 82% 30.30 in 10.0 mi SSW 4.6 mph - N/A   Clear
1:55 AM 48.2 °F - 42.8 °F 82% 30.29 in 10.0 mi SSW 4.6 mph - N/A   Clear
2:15 AM 48.2 °F - 42.8 °F 82% 30.29 in 10.0 mi SSW 4.6 mph - N/A   Clear
2:35 AM 48.2 °F - 42.8 °F 82% 30.28 in 10.0 mi SSW 5.8 mph - N/A   Clear
2:55 AM 48.2 °F - 42.8 °F 82% 30.28 in 10.0 mi SSW 3.5 mph - N/A   Clear
3:15 AM 48.2 °F - 42.8 °F 82% 30.27 in 10.0 mi SSW 4.6 mph - N/A   Clear
3:35 AM 46.4 °F 45.2 °F 42.8 °F 87% 30.27 in 10.0 mi SSW 3.5 mph - N/A   Clear
3:55 AM 44.6 °F - 41.0 °F 87% 30.26 in 10.0 mi Calm Calm - N/A   Clear
4:15 AM 42.8 °F 41.1 °F 41.0 °F 93% 30.26 in 10.0 mi South 3.5 mph - N/A   Clear
4:35 AM 41.0 °F - 41.0 °F 100% 30.26 in 10.0 mi Calm Calm - N/A   Clear
4:55 AM 44.6 °F 42.2 °F 42.8 °F 93% 30.26 in 10.0 mi SW 4.6 mph - N/A   Clear
5:15 AM 44.6 °F 42.2 °F 42.8 °F 93% 30.26 in 10.0 mi SW 4.6 mph - N/A   Clear
5:35 AM 44.6 °F - 41.0 °F 87% 30.26 in 10.0 mi Calm Calm - N/A   Clear
6:45 AM 42.8 °F 39.3 °F 41.0 °F 93% 30.25 in 10.0 mi SSW 5.8 mph - N/A   Overcast
7:45 AM 53.6 °F - 46.4 °F 77% 30.23 in 10.0 mi SSW 6.9 mph - N/A   Overcast
8:23 AM 55.4 °F - 48.2 °F 77% 30.22 in 10.0 mi SW 9.2 mph 17.3 mph N/A   Mostly Cloudy
8:45 AM 55.4 °F - 48.2 °F 77% 30.22 in 10.0 mi WSW 8.1 mph 17.3 mph N/A   Mostly Cloudy
9:45 AM 59.0 °F - 41.0 °F 51% 30.20 in 10.0 mi West 12.7 mph 28.8 mph N/A   Mostly Cloudy
10:45 AM 62.6 °F - 48.2 °F 59% 30.16 in 15.0 mi SW 16.1 mph 23.0 mph N/A   Mostly Cloudy
11:45 AM 66.2 °F - 48.2 °F 52% 30.11 in 10.0 mi WSW 13.8 mph 27.6 mph N/A   Mostly Cloudy
12:45 PM 68.0 °F - 48.2 °F 49% 30.07 in 10.0 mi WSW 16.1 mph 29.9 mph N/A   Mostly Cloudy
1:45 PM 69.8 °F - 48.2 °F 46% 30.03 in 10.0 mi SW 25.3 mph 32.2 mph N/A   Mostly Cloudy
2:45 PM 69.8 °F - 48.2 °F 46% 30.00 in 10.0 mi SW 18.4 mph 36.8 mph N/A   Mostly Cloudy
3:45 PM 69.8 °F - 48.2 °F 46% 29.99 in 10.0 mi SW 17.3 mph 28.8 mph N/A   Mostly Cloudy
4:45 PM 68.0 °F - 48.2 °F 49% 29.98 in 10.0 mi WSW 18.4 mph 34.5 mph N/A   Mostly Cloudy
5:45 PM 66.2 °F - 48.2 °F 52% 29.95 in 10.0 mi SW 23.0 mph 33.4 mph N/A   Mostly Cloudy
6:45 PM 66.2 °F - 48.2 °F 52% 29.94 in 10.0 mi SSW 13.8 mph - N/A   Scattered Clouds
7:45 PM 66.2 °F - 46.4 °F 49% 29.92 in 10.0 mi SW 13.8 mph 23.0 mph N/A   Overcast
8:45 PM 64.4 °F - 46.4 °F 52% 29.89 in 10.0 mi SW 18.4 mph 29.9 mph N/A   Mostly Cloudy
9:45 PM 64.4 °F - 46.4 °F 52% 29.87 in 10.0 mi SW 16.1 mph 27.6 mph N/A   Mostly Cloudy
9:55 PM 64.4 °F - 48.2 °F 56% 29.86 in 10.0 mi SSW 15.0 mph 21.9 mph N/A   Overcast
10:15 PM 64.4 °F - 48.2 °F 56% 29.85 in 10.0 mi SSW 11.5 mph 19.6 mph N/A   Overcast
10:35 PM 64.4 °F - 48.2 °F 56% 29.85 in 10.0 mi SSW 11.5 mph 23.0 mph N/A   Overcast
10:55 PM 62.6 °F - 48.2 °F 59% 29.84 in 10.0 mi SSW 9.2 mph 16.1 mph N/A   Mostly Cloudy
11:15 PM 62.6 °F - 48.2 °F 59% 29.83 in 10.0 mi SSW 10.4 mph 18.4 mph N/A   Overcast
11:35 PM 62.6 °F - 48.2 °F 59% 29.82 in 10.0 mi SW 10.4 mph 18.4 mph N/A   Overcast
11:55 PM 62.6 °F - 48.2 °F 59% 29.83 in 10.0 mi SSW 15.0 mph 24.2 mph N/A   Overcast